EN

Hourly Weather Bolshoe Aleshino

Today, 21 October, Wednesday

Time Temperature Precipitation Wind Pressure Humidity
00:00 -1°C° 0 mm 5 mps 749 mmHg 84%
01:00 -2°C° 0 mm 5 mps 749 mmHg 85%
02:00 -2°C° 0 mm 4 mps 750 mmHg 86%
03:00 -2°C° 0 mm 4 mps 750 mmHg 88%
04:00 -3°C° 0 mm 4 mps 751 mmHg 89%
05:00 -3°C° 0 mm 4 mps 751 mmHg 90%
06:00 -3°C° 0 mm 4 mps 751 mmHg 91%
07:00 -2°C° 0 mm 4 mps 751 mmHg 87%
08:00 -2°C° 0 mm 4 mps 751 mmHg 83%
09:00 -1°C° 0 mm 4 mps 752 mmHg 80%
10:00 0°C° 0 mm 4 mps 752 mmHg 76%
11:00 +1°C° 0 mm 4 mps 752 mmHg 72%
12:00 +1°C° 0 mm 4 mps 751 mmHg 68%
13:00 +3°C° 0 mm 4 mps 751 mmHg 67%
14:00 +3°C° 0 mm 4 mps 751 mmHg 67%
15:00 +3°C° 0 mm 4 mps 751 mmHg 67%
16:00 +1°C° 0 mm 4 mps 751 mmHg 76%
17:00 +1°C° 0 mm 4 mps 751 mmHg 86%
18:00 +1°C° 0 mm 3 mps 750 mmHg 95%
19:00 +1°C° 0.2 mm 3 mps 750 mmHg 95%
20:00 +1°C° 0.2 mm 3 mps 750 mmHg 96%
21:00 +2°C° 0.2 mm 2 mps 750 mmHg 96%
22:00 +3°C° 0.1 mm 2 mps 750 mmHg 96%
23:00 +3°C° 0.1 mm 2 mps 749 mmHg 95%

Tomorrow, 22 October, Thursday

Time Temperature Precipitation Wind Pressure Humidity
00:00 +3°C° 0.1 mm 2 mps 749 mmHg 95%
01:00 +3°C° 0 mm 2 mps 749 mmHg 95%
02:00 +3°C° 0 mm 2 mps 749 mmHg 94%
03:00 +4°C° 0 mm 2 mps 749 mmHg 94%
04:00 +4°C° 0.1 mm 2 mps 749 mmHg 94%
05:00 +4°C° 0.1 mm 2 mps 749 mmHg 94%
06:00 +4°C° 0.1 mm 2 mps 749 mmHg 95%
07:00 +4°C° 0.1 mm 2 mps 749 mmHg 94%
08:00 +4°C° 0.1 mm 2 mps 749 mmHg 93%
09:00 +5°C° 0.1 mm 2 mps 749 mmHg 92%
10:00 +5°C° 0 mm 3 mps 748 mmHg 88%
11:00 +5°C° 0 mm 3 mps 748 mmHg 85%
12:00 +7°C° 0 mm 3 mps 748 mmHg 82%
13:00 +7°C° 0 mm 3 mps 748 mmHg 80%
14:00 +8°C° 0 mm 3 mps 747 mmHg 78%
15:00 +8°C° 0 mm 3 mps 747 mmHg 77%
16:00 +8°C° 0 mm 3 mps 746 mmHg 79%
17:00 +6°C° 0 mm 4 mps 746 mmHg 82%
18:00 +6°C° 0 mm 4 mps 745 mmHg 84%
19:00 +6°C° 0.4 mm 4 mps 745 mmHg 87%
20:00 +6°C° 0.4 mm 5 mps 744 mmHg 89%
21:00 +5°C° 0.4 mm 6 mps 743 mmHg 91%
22:00 +6°C° 0.4 mm 5 mps 743 mmHg 90%
23:00 +6°C° 0.4 mm 5 mps 742 mmHg 90%

Day after tomorrow, 23 October, Friday

Time Temperature Precipitation Wind Pressure Humidity
00:00 +7°C° 0.4 mm 5 mps 742 mmHg 89%
01:00 +7°C° 0.1 mm 5 mps 741 mmHg 90%
02:00 +7°C° 0.1 mm 5 mps 741 mmHg 90%
03:00 +7°C° 0.1 mm 5 mps 741 mmHg 90%
04:00 +8°C° 0 mm 6 mps 741 mmHg 90%
05:00 +9°C° 0 mm 6 mps 741 mmHg 89%
06:00 +9°C° 0 mm 6 mps 741 mmHg 88%
07:00 +9°C° 0 mm 6 mps 741 mmHg 87%
08:00 +10°C° 0 mm 6 mps 741 mmHg 86%
09:00 +10°C° 0 mm 6 mps 741 mmHg 85%
10:00 +10°C° 0 mm 7 mps 741 mmHg 83%
11:00 +11°C° 0 mm 7 mps 742 mmHg 81%
12:00 +11°C° 0 mm 7 mps 742 mmHg 79%
13:00 +11°C° 0 mm 7 mps 742 mmHg 79%
14:00 +11°C° 0 mm 6 mps 742 mmHg 78%
15:00 +11°C° 0 mm 6 mps 742 mmHg 77%
16:00 +10°C° 0 mm 5 mps 741 mmHg 81%
17:00 +10°C° 0 mm 5 mps 741 mmHg 86%
18:00 +10°C° 0 mm 4 mps 740 mmHg 90%
19:00 +10°C° 0.2 mm 5 mps 740 mmHg 90%
20:00 +10°C° 0.2 mm 6 mps 739 mmHg 90%
21:00 +10°C° 0.2 mm 7 mps 739 mmHg 90%
22:00 +11°C° 0.4 mm 7 mps 739 mmHg 89%
23:00 +11°C° 0.4 mm 7 mps 738 mmHg 88%

24 October, Saturday

Time Temperature Precipitation Wind Pressure Humidity
00:00 +11°C° 0.4 mm 8 mps 738 mmHg 87%
01:00 +11°C° 0 mm 7 mps 738 mmHg 88%
02:00 +10°C° 0 mm 6 mps 738 mmHg 88%
03:00 +10°C° 0 mm 6 mps 739 mmHg 88%
04:00 +9°C° 0 mm 6 mps 739 mmHg 89%
05:00 +9°C° 0 mm 6 mps 739 mmHg 90%
06:00 +9°C° 0 mm 5 mps 740 mmHg 90%
07:00 +9°C° 0 mm 5 mps 740 mmHg 89%
08:00 +9°C° 0 mm 5 mps 740 mmHg 88%
09:00 +9°C° 0 mm 5 mps 740 mmHg 86%
10:00 +9°C° 0 mm 5 mps 741 mmHg 82%
11:00 +10°C° 0 mm 5 mps 741 mmHg 77%
12:00 +11°C° 0 mm 4 mps 742 mmHg 72%
13:00 +11°C° 0 mm 4 mps 742 mmHg 72%
14:00 +11°C° 0 mm 4 mps 742 mmHg 71%
15:00 +11°C° 0 mm 4 mps 742 mmHg 71%
16:00 +10°C° 0 mm 4 mps 742 mmHg 74%
17:00 +9°C° 0 mm 3 mps 742 mmHg 76%
18:00 +9°C° 0 mm 3 mps 742 mmHg 78%
19:00 +8°C° 0 mm 2 mps 742 mmHg 81%
20:00 +8°C° 0 mm 2 mps 742 mmHg 83%
21:00 +8°C° 0 mm 1 mps 742 mmHg 85%
22:00 +8°C° 0 mm 1 mps 742 mmHg 86%
23:00 +8°C° 0 mm 1 mps 742 mmHg 87%

25 October, Sunday

Time Temperature Precipitation Wind Pressure Humidity
00:00 +8°C° 0 mm 1 mps 742 mmHg 88%
01:00 +8°C° 0 mm 1 mps 742 mmHg 88%
02:00 +7°C° 0 mm 1 mps 741 mmHg 89%
03:00 +6°C° 0 mm 2 mps 741 mmHg 89%
04:00 +6°C° 0 mm 2 mps 741 mmHg 89%
05:00 +6°C° 0 mm 2 mps 740 mmHg 89%
06:00 +5°C° 0 mm 3 mps 740 mmHg 89%
07:00 +7°C° 0.7 mm 3 mps 739 mmHg 89%
08:00 +7°C° 0.7 mm 3 mps 739 mmHg 90%
09:00 +6°C° 0.7 mm 4 mps 739 mmHg 91%
10:00 +6°C° 1.1 mm 4 mps 738 mmHg 92%
11:00 +7°C° 1.1 mm 4 mps 738 mmHg 94%
12:00 +7°C° 1.1 mm 4 mps 738 mmHg 95%
13:00 +7°C° 0.4 mm 4 mps 738 mmHg 96%
14:00 +7°C° 0.4 mm 4 mps 737 mmHg 96%
15:00 +7°C° 0.4 mm 4 mps 737 mmHg 96%
16:00 +8°C° 1.2 mm 3 mps 737 mmHg 96%
17:00 +8°C° 1.2 mm 3 mps 737 mmHg 96%
18:00 +8°C° 1.2 mm 3 mps 737 mmHg 96%
19:00 +8°C° 1.2 mm 2 mps 737 mmHg 96%
20:00 +8°C° 1.2 mm 2 mps 738 mmHg 96%
21:00 +9°C° 1.2 mm 1 mps 738 mmHg 95%
22:00 +7°C° 0.3 mm 2 mps 738 mmHg 96%
23:00 +7°C° 0.3 mm 2 mps 738 mmHg 96%

26 October, Monday

Time Temperature Precipitation Wind Pressure Humidity
00:00 +7°C° 0.3 mm 2 mps 739 mmHg 96%
01:00 +7°C° 0.8 mm 3 mps 739 mmHg 95%
02:00 +6°C° 0.8 mm 4 mps 739 mmHg 95%
03:00 +6°C° 0.8 mm 5 mps 740 mmHg 94%
04:00 +5°C° 1.3 mm 6 mps 740 mmHg 93%
05:00 +4°C° 1.3 mm 7 mps 741 mmHg 91%
06:00 +4°C° 1.3 mm 8 mps 742 mmHg 90%
07:00 +2°C° 0.5 mm 8 mps 742 mmHg 87%
08:00 +2°C° 0.5 mm 8 mps 743 mmHg 84%
09:00 +1°C° 0.5 mm 8 mps 744 mmHg 81%
10:00 +1°C° 0 mm 8 mps 744 mmHg 78%
11:00 +3°C° 0 mm 7 mps 745 mmHg 75%
12:00 +3°C° 0 mm 7 mps 746 mmHg 72%
13:00 +3°C° 0 mm 7 mps 746 mmHg 70%
14:00 +4°C° 0 mm 7 mps 747 mmHg 68%
15:00 +4°C° 0 mm 7 mps 748 mmHg 66%
16:00 +3°C° 0 mm 6 mps 748 mmHg 69%
17:00 +2°C° 0 mm 6 mps 749 mmHg 73%
18:00 +1°C° 0 mm 5 mps 750 mmHg 76%
19:00 +1°C° 0 mm 5 mps 750 mmHg 78%
20:00 0°C° 0 mm 5 mps 751 mmHg 80%
21:00 0°C° 0 mm 4 mps 751 mmHg 81%
22:00 0°C° 0 mm 4 mps 752 mmHg 83%
23:00 -1°C° 0 mm 4 mps 752 mmHg 85%

27 October, Tuesday

Time Temperature Precipitation Wind Pressure Humidity
00:00 0°C° 0 mm 3 mps 753 mmHg 87%
01:00 0°C° 0 mm 3 mps 753 mmHg 88%
02:00 -1°C° 0 mm 3 mps 753 mmHg 89%
03:00 -1°C° 0 mm 3 mps 754 mmHg 90%
04:00 -1°C° 0 mm 3 mps 754 mmHg 91%
05:00 -1°C° 0 mm 3 mps 755 mmHg 91%
06:00 -1°C° 0 mm 3 mps 755 mmHg 91%
07:00 -1°C° 0 mm 3 mps 755 mmHg 89%
08:00 0°C° 0 mm 3 mps 756 mmHg 86%
09:00 +2°C° 0 mm 2 mps 756 mmHg 83%
10:00 +3°C° 0 mm 2 mps 756 mmHg 78%
11:00 +4°C° 0 mm 2 mps 756 mmHg 72%
12:00 +5°C° 0 mm 2 mps 757 mmHg 67%
13:00 +6°C° 0 mm 2 mps 757 mmHg 66%
14:00 +6°C° 0 mm 2 mps 757 mmHg 66%
15:00 +7°C° 0 mm 2 mps 757 mmHg 65%
16:00 +6°C° 0 mm 2 mps 757 mmHg 71%
17:00 +6°C° 0 mm 1 mps 757 mmHg 76%
18:00 +5°C° 0 mm 1 mps 757 mmHg 81%
19:00 +4°C° 0 mm 1 mps 757 mmHg 81%
20:00 +4°C° 0 mm 1 mps 757 mmHg 82%
21:00 +3°C° 0 mm 0 mps 757 mmHg 82%
22:00 +3°C° 0 mm 0 mps 757 mmHg 82%
23:00 +3°C° 0 mm 0 mps 757 mmHg 82%
Show more